Погода Мыс Ванкерем

Погода Мыс Ванкерем : погода сейчас, прогноз погоды и архив. Всё, что Вы хотите узнать о погоде Мыс Ванкерем!

Поиск расширенной информации на нашем сайте:

Другие новости

Новости СМИ2

Главная страница сайта

Новости сайта

03.07.2017

Напоминаем, что на нашем специализированном сайте Метеоцентр.Азия вы можете получить высокодетализированные автоматические прогнозы погоды по пунктам России, СНГ и мира в авиационном формате (включающие направление и скорость ветра, видимость, явления погоды, количество и форму облачности, нижнюю и верхнюю границу облачности).


Погода Мыс Ванкерем - сегодня

Время (UTC), дата Ветер
(°,м/с) 
Видим.   Явления Облачность Т
(°С)
Тd
(°С)
f(%) Тe
(°С)
Pmin
(гПа)
dP
(гПа)
Po
(мм)
O2
(г/м3)
Тmin Tmax R s Состояние
почвы
15 19.02.18 120 (ЮВ) 8{12}  20000 м    6/0 средняя, верхняя 
[Ac lent|Ci fib]
-9.5 -12.5 79 -16  1004.6  -4.3  753  316           
18 19.02.18 100 (В) 8{13}  20000 м    8/0 средняя, верхняя 
[Ac trans|Ci fib]
-9.7 -12.3 81 -16  999.7  -4.9  749  314  -10.2      53  неравномерный
сухой снег
100% 
21 19.02.18 120 (ЮВ) 9{12}  2000 м  снег  10/8 300 м средняя 
[Frnb|As op]
-6.4 -8.3 86 -12  994.6  -5.1  746  308           
03 20.02.18 160 (Ю) 10{14}  20000 м  позёмок  10/8 300 м средняя 
[Sc|Ac lent]
-1.1 -3 87 -6  988.6  -0.8  741  300           
09 20.02.18 160 (Ю) 12{17}  10 км    10/6 600 м средняя 
[Sc|Ac lent]
-0.2 -3.5 78 -6  988.7  0.4  741  299           
15 20.02.18 180 (Ю) 10{17}  10 км  {снег}  10/10 600 м 
[Sc]
-2.4 -5 82 -8  983.9  -2  737  300           
18 20.02.18 220 (ЮЗ) 9{16}  10 км  {снег}  10/10 600 м 
[Sc]
-5 -7.4 83 -11  980.6  -3.3  735  302  -5    0.2  53  неравномерный
сухой снег
100% 
21 20.02.18 320 (СЗ) 14{18}  4000 м  метель{снег}  10/10 600 м 
[Sc]
-13.7 -16.4 80 -23  986.3  5.7  739  315           
03 21.02.18 180 (Ю) 8{04}  10 км    10/10 600 м 
[Sc]
-12 -14.7 80 -19  1000.9  5.4  750  317           
09 21.02.18 070 (В) 2{04}  10 км    10/10 600 м 
[Sc]
-12 -14.7 80 -14  1010.9  758  321           
12 21.02.18 100 (В) 4{06}  20000 м    9/9 600 м 
[Sc]
-15.3 -18 80 -20  1014.4  3.5  760  326           
15 21.02.18 100 (В) 3{05}  10 км  {снег}  10/10 600 м 
[Sc]
-17 -19.6 80 -21  1014.6  0.2  761  328           
18 21.02.18 270 (З) 1{04}  10 км  {снег}  10/10 600 м 
[Sc]
-19.1 -21 85 -19  1011.7  -3  758  330  -19.8    0.2  53  неравномерный
сухой снег
100% 
21 21.02.18 320 (СЗ) 4{06}  2000 м  снег  10/8 300 м средняя 
[Frnb|As op]
-15 -15.6 95 -20  1010.3  -1.3  757  324           
03 22.02.18 340 (С) 13{17}  1000 м  метель{снег}  ?/?  
-16 -17.3 90 -26  1005.2  -1.8  753  324           
09 22.02.18 350 (С) 12{16}  1000 м  метель  ?/?  
-15 -16.3 90 -24  1009  756  324           
15 22.02.18 360 (С) 11{16}  2000 м  метель  9/5 600 м средняя 
[Sc|Ac trans]
-18.4 -20.3 85 -28  1014.7  2.4  761  330           
18 22.02.18 360 (С) 11{15}  4000 м  метель  9/8 600 м средняя 
[Sc|Ac trans]
-17.9 -20.5 80 -27  1017.6  2.9  763  330  -18.7    0.3  51  неравномерный
сухой снег
100% 
21 22.02.18 300 (СЗ) 4{13}  20000 м    10/8 600 м средняя, верхняя 
[Sc|Ac trans|Ci fib]
-19.7 -22.3 80 -25  1020.6  765  334           
03 23.02.18 220 (ЮЗ) 2{04}  20000 м    8/3 600 м средняя, верхняя 
[Sc|Ac trans|Ci fib]
-21 -22.8 85 -24  1024.6  1.8  768  337           
12 23.02.18 260 (З) 2{04}  20000 м    3/0 средняя, верхняя 
[Ac trans|Ci fib]
-23.9 -26.4 80 -27  1028.6  1.5  771  342           
15 23.02.18 190 (Ю) 2{04}  20000 м    6/0 средняя, верхняя 
[Ac trans|Ci fib]
-22.6 -25.1 80 -26  1029.6  772  341           
18 23.02.18 250 (З) 2{04}  20000 м    9/0 средняя 
[Ac trans]
-21.4 -23.9 80 -24  1030.4  0.8  772  339  -25      51  неравномерный
сухой снег
100% 
00 24.02.18 320 (СЗ) 3{05}  20000 м    9/0 средняя 
[Ac trans]
-23 -25.5 80 -28  1024.7  -3.7  768  340           
03 24.02.18 220 (ЮЗ) 2{04}  20000 м    10/3 600 м средняя, верхняя 
[Sc|Ac trans|Ci fib]
-21 -22.8 85 -24  1002.7  -2  752  330           
Время (UTC), дата Ветер
(°,м/с) 
Видим.   Явления Облачность Т
(°С)
Тd
(°С)
f(%) Тe
(°С)
Pmin
(гПа)
dP
(гПа)
Po
(мм)
O2
(г/м3)
Тmin Tmax R s Состояние
почвы

Для получения пояснительной информации подведите курсор к названию столбца.

ПОГОДА Мыс Ванкерем - архив

Всё, что Вы хотите узнать о погоде Мыс Ванкерем - удобно и подробно!

Выберите нужную дату (начиная с 1 января 2015* года) и нажмите кнопку "Найти".
Будут отображены архивные сводки погоды по пункту Мыс Ванкерем, начиная с указанной даты.


Отображать данные в формате CSV (для использования в таблицах Excel)


Внимание! Наш архив погоды предназначен исключительно для личного некоммерческого использования в познавательных целях. Если Вам необходимы официальные справки о состоянии погоды (для производственных, юридических, коммерческих и т.п. целей), обращайтесь в органы Росгидромета.

*Примечание: данная дата относится к архиву по метеостанциям СССР (Россия, СНГ, Балтия).
Архив по метеостанциям Зарубежной Европы и Азии (кроме Китая) хранится 10 дней, по другим регионам земного шара (Китай, Африка, Америка, Австралия, Океания) - 1 день.

Мыс Ванкерем - район местоположения метеостанции


Название, широта, долгота, высота метеостанции:
Мыс Ванкерем 67.83°ш. -175.8°д. 5 м над ур. моря [Российская Федерация]

Дополнительная информация

В oтличие oт бoльшинства пoгoдных сайтoв мы публикуем пoдрoбную метеoинфoрмацию в детальнoм прoфессиoнальнoм фoрмате.

Характеристики температуры и влажнoсти вoздуха измеряются на высoте 2 м в тени вдали oт зданий и деревьев.
Скoрoсть ветра измеряется на высoте 10 м (на урoвне рoста челoвека скoрoсть ветра ниже в 1.5-2 раза). Если метеoстанция нахoдится в гoрoде или в лесу, тo скoрoсть ветра занижена на 2-4 м/с пo сравнению с oткрытым местoм. Скoрoсть ветра над акватoриями крупных рек и oзёр, а также на вершинах хoлмoв на 2-5 м/с выше, чем в oбычных услoвиях.
Атмoсфернoе давление в разных тoчках местнoсти мoжет значительнo oтличаться oт давления на метеoстанции, в зависимoсти oт услoвий рельефа (при пoдъёме на 10 м давление пoнижается примернo на 1 мм рт.ст.).